Weather History for KFGN - May, 2013

Change the Weather History Date:

Monday, May 6, 2013

  Actual Average Record
Temperature  
Mean Temperature 38 °F -  
Max Temperature 46 °F 50 °F 66 °F (2005)
Min Temperature 30 °F 35 °F 28 °F (2002)
Degree Days  
Heating Degree Days 27    
Moisture  
Dew Point 33 °F    
Average Humidity 80    
Maximum Humidity 100    
Minimum Humidity 57    
Precipitation  
Precipitation 0.00 in - - ()
Sea Level Pressure  
Sea Level Pressure 30.05 in    
Wind  
Wind Speed 7 mph (SSE)    
Max Wind Speed 15 mph    
Max Gust Speed -    
Visibility 9 miles    
Events Fog    
Averages and records for this station are not official NWS values.
T = Trace of Precipitation, MM = Missing Value Source: NWS Daily Summary

Daily Weather History Graph

Daily Weather History Graph

Search for Another Location

Airport or City:

Trip Planner

Search our weather history database for the weather conditions in past years. The results will help you decide how hot, cold, wet, or windy it might be!

Date:

Astronomy

May. 06, 2013 Rise Set
Actual Time 5:49 AM CDT 8:44 PM CDT
Civil Twilight 5:12 AM CDT 9:21 PM CDT
Nautical Twilight 4:24 AM CDT 10:09 PM CDT
Astronomical Twilight 3:26 AM CDT 11:07 PM CDT
Moon 4:09 AM CDT (5/6) 5:30 PM CDT (5/6)
Length of Visible Light 16h 09m
Length of Day
14h 55m
Waning Crescent, 11% of the Moon is Illuminated
May 6
Waning Crescent
May 9
New
May 17
First Quarter
May 24
Full
May 31
Last Quarter

Hourly Weather History & Observations

Time (CDT) Temp. Windchill Dew Point Humidity Pressure Visibility Wind Dir Wind Speed Gust Speed Precip Events Conditions
12:13 AM 35.6 °F 31.7 °F 30.2 °F 81% 30.11 in 10.0 mi SSE 4.6 mph - N/A   Clear
12:33 AM 35.6 °F 31.7 °F 30.2 °F 81% 30.11 in 10.0 mi South 4.6 mph - N/A   Clear
12:54 AM 35.6 °F 31.7 °F 30.2 °F 81% 30.11 in 10.0 mi SE 4.6 mph - N/A   Clear
1:13 AM 33.8 °F 27.7 °F 30.2 °F 87% 30.10 in 10.0 mi SE 6.9 mph - N/A   Clear
1:33 AM 33.8 °F 28.6 °F 30.2 °F 87% 30.10 in 10.0 mi SSE 5.8 mph - N/A   Clear
1:53 AM 33.8 °F 27.7 °F 28.4 °F 81% 30.10 in 10.0 mi SSE 6.9 mph - N/A   Clear
2:13 AM 33.8 °F 27.7 °F 30.2 °F 87% 30.10 in 10.0 mi SSE 6.9 mph - N/A   Clear
2:34 AM 33.8 °F 27.7 °F 30.2 °F 87% 30.10 in 10.0 mi SSE 6.9 mph - N/A   Clear
2:53 AM 33.8 °F 27.7 °F 30.2 °F 87% 30.09 in 10.0 mi SSE 6.9 mph - N/A   Clear
3:13 AM 33.8 °F 29.6 °F 30.2 °F 87% 30.09 in 10.0 mi SSE 4.6 mph - N/A   Clear
3:34 AM 33.8 °F 29.6 °F 32.0 °F 93% 30.09 in 10.0 mi South 4.6 mph - N/A   Clear
3:53 AM 35.6 °F 31.7 °F 33.8 °F 93% 30.09 in 10.0 mi SSE 4.6 mph - N/A   Clear
4:13 AM 35.6 °F 30.7 °F 33.8 °F 93% 30.09 in 10.0 mi SSE 5.8 mph - N/A   Clear
4:34 AM 35.6 °F 30.7 °F 33.8 °F 93% 30.09 in 10.0 mi SSE 5.8 mph - N/A   Clear
4:53 AM 35.6 °F - 33.8 °F 93% 30.09 in 10.0 mi Calm Calm - N/A   Clear
5:13 AM 35.6 °F - 33.8 °F 93% 30.09 in 10.0 mi Calm Calm - N/A   Clear
5:34 AM 35.6 °F 31.7 °F 33.8 °F 93% 30.09 in 10.0 mi SE 4.6 mph - N/A   Clear
5:53 AM 33.8 °F - 30.2 °F 87% 30.09 in 10.0 mi Calm Calm - N/A   Clear
6:13 AM 33.8 °F 30.8 °F 32.0 °F 93% 30.09 in 10.0 mi SSE 3.5 mph - N/A   Clear
6:33 AM 35.6 °F 32.8 °F 33.8 °F 93% 30.08 in 10.0 mi SE 3.5 mph - N/A   Clear
7:01 AM 33.8 °F 28.6 °F 32.0 °F 93% 30.09 in 10.0 mi SE 5.8 mph - N/A   Clear
7:12 AM 32.0 °F 24.8 °F 30.2 °F 93% 30.09 in 0.2 mi SSE 8.1 mph - N/A Fog Fog
7:13 AM 32.0 °F 24.8 °F 30.2 °F 93% 30.09 in 0.2 mi SSE 8.1 mph - N/A Fog Fog
7:33 AM 30.2 °F 23.4 °F 28.4 °F 93% 30.09 in 0.2 mi SSE 6.9 mph - N/A Fog Light Freezing Fog
7:54 AM 30.2 °F 23.4 °F 30.2 °F 100% 30.09 in 1.0 mi SSE 6.9 mph - N/A   Mostly Cloudy
8:14 AM 32.0 °F 24.8 °F 30.2 °F 93% 30.09 in 0.8 mi SSE 8.1 mph - N/A   Mist
8:33 AM 33.8 °F 27.7 °F 32.0 °F 93% 30.10 in 1.2 mi SE 6.9 mph - N/A   Mist
8:54 AM 33.8 °F 27.7 °F 33.8 °F 100% 30.10 in 3.0 mi SE 6.9 mph - N/A   Clear
9:13 AM 35.6 °F 29.9 °F 33.8 °F 93% 30.09 in 10.0 mi SE 6.9 mph - N/A   Clear
9:33 AM 35.6 °F 29.2 °F 33.8 °F 93% 30.09 in 10.0 mi SE 8.1 mph - N/A   Clear
9:54 AM 37.4 °F 31.4 °F 33.8 °F 87% 30.09 in 10.0 mi SE 8.1 mph - N/A   Clear
10:13 AM 37.4 °F 31.4 °F 35.6 °F 93% 30.09 in 10.0 mi SE 8.1 mph - N/A   Clear
10:34 AM 37.4 °F 30.8 °F 33.8 °F 87% 30.08 in 10.0 mi SE 9.2 mph - N/A   Clear
10:53 AM 37.4 °F 31.4 °F 35.6 °F 93% 30.08 in 10.0 mi SE 8.1 mph - N/A   Clear
11:13 AM 39.2 °F 34.2 °F 35.6 °F 87% 30.08 in 10.0 mi SE 6.9 mph - N/A   Clear
11:34 AM 37.4 °F 31.4 °F 35.6 °F 93% 30.07 in 10.0 mi SSE 8.1 mph - N/A   Clear
11:53 AM 39.2 °F 31.6 °F 35.6 °F 87% 30.07 in 10.0 mi SSE 12.7 mph - N/A   Clear
12:13 PM 39.2 °F 32.0 °F 35.6 °F 87% 30.07 in 10.0 mi SSE 11.5 mph - N/A   Clear
12:34 PM 39.2 °F 31.6 °F 35.6 °F 87% 30.06 in 10.0 mi SSE 12.7 mph - N/A   Clear
12:53 PM 41.0 °F 33.1 °F 35.6 °F 81% 30.06 in 10.0 mi SSE 15.0 mph - N/A   Clear
1:13 PM 41.0 °F 33.9 °F 35.6 °F 81% 30.05 in 10.0 mi SSE 12.7 mph - N/A   Clear
1:34 PM 41.0 °F 33.9 °F 35.6 °F 81% 30.05 in 10.0 mi SSE 12.7 mph - N/A   Clear
1:53 PM 42.8 °F 36.2 °F 35.6 °F 76% 30.05 in 10.0 mi SSE 12.7 mph - N/A   Clear
2:13 PM 42.8 °F 35.8 °F 35.6 °F 76% 30.04 in 10.0 mi SSE 13.8 mph - N/A   Clear
2:34 PM 44.6 °F 38.1 °F 35.6 °F 71% 30.04 in 10.0 mi SSE 13.8 mph - N/A   Clear
2:53 PM 42.8 °F 36.2 °F 35.6 °F 76% 30.03 in 10.0 mi SSE 12.7 mph - N/A   Clear
3:13 PM 42.8 °F 36.2 °F 33.8 °F 70% 30.03 in 10.0 mi SSE 12.7 mph - N/A   Clear
3:34 PM 42.8 °F 36.6 °F 33.8 °F 70% 30.02 in 10.0 mi SSE 11.5 mph - N/A   Clear
3:53 PM 42.8 °F 36.6 °F 33.8 °F 70% 30.02 in 10.0 mi SSE 11.5 mph - N/A   Clear
4:13 PM 42.8 °F 37.0 °F 33.8 °F 70% 30.01 in 10.0 mi SSE 10.4 mph - N/A   Clear
4:34 PM 42.8 °F 37.0 °F 33.8 °F 70% 30.01 in 10.0 mi SSE 10.4 mph - N/A   Clear
5:13 PM 41.0 °F 35.8 °F 33.8 °F 76% 30.00 in 10.0 mi South 8.1 mph - N/A   Clear
5:34 PM 42.8 °F 38.6 °F 33.8 °F 70% 30.00 in 10.0 mi SSE 6.9 mph - N/A   Clear
5:53 PM 42.8 °F 38.6 °F 32.0 °F 66% 30.00 in 10.0 mi South 6.9 mph - N/A   Clear
6:13 PM 42.8 °F 39.3 °F 32.0 °F 66% 29.99 in 10.0 mi SSE 5.8 mph - N/A   Clear
6:34 PM 44.6 °F 41.4 °F 32.0 °F 61% 29.99 in 10.0 mi SSE 5.8 mph - N/A   Clear
6:53 PM 44.6 °F 40.7 °F 32.0 °F 61% 29.99 in 10.0 mi SSE 6.9 mph - N/A   Clear
7:13 PM 44.6 °F 40.7 °F 30.2 °F 57% 29.99 in 10.0 mi South 6.9 mph - N/A   Clear
7:34 PM 44.6 °F 39.7 °F 30.2 °F 57% 29.99 in 10.0 mi SSE 9.2 mph - N/A   Clear
7:53 PM 44.6 °F 40.2 °F 30.2 °F 57% 29.98 in 10.0 mi SSE 8.1 mph - N/A   Clear
8:13 PM 44.6 °F 40.7 °F 30.2 °F 57% 29.98 in 10.0 mi SSE 6.9 mph - N/A   Clear
8:34 PM 44.6 °F 40.7 °F 30.2 °F 57% 29.98 in 10.0 mi SSE 6.9 mph - N/A   Clear
8:53 PM 44.6 °F 40.7 °F 30.2 °F 57% 29.98 in 10.0 mi SSE 6.9 mph - N/A   Clear
9:13 PM 42.8 °F 38.6 °F 32.0 °F 66% 29.99 in 10.0 mi SSE 6.9 mph - N/A   Clear
9:53 PM 42.8 °F 40.1 °F 33.8 °F 70% 30.00 in 10.0 mi SSE 4.6 mph - N/A   Clear
10:13 PM 42.8 °F 40.1 °F 33.8 °F 70% 30.00 in 10.0 mi South 4.6 mph - N/A   Clear
10:34 PM 42.8 °F 41.1 °F 33.8 °F 70% 30.00 in 10.0 mi South 3.5 mph - N/A   Clear
10:53 PM 46.4 °F 44.3 °F 35.6 °F 66% 29.99 in 10.0 mi SSE 4.6 mph - N/A   Clear
11:13 PM 42.8 °F 41.1 °F 33.8 °F 70% 30.00 in 10.0 mi SSE 3.5 mph - N/A   Clear
11:33 PM 41.0 °F 38.0 °F 33.8 °F 76% 30.00 in 10.0 mi SSE 4.6 mph - N/A   Clear
11:53 PM 42.8 °F 40.1 °F 33.8 °F 70% 30.00 in 10.0 mi SE 4.6 mph - N/A   Clear